Dewpoint
44 39 35 37 37 32 32 31 31 32 32 30 31 30 30 30 30 30 30 30 30 30 31 33 35 36 36 37 37 36 38 52 64 64 64 64 63 63 63 64 62 60 60 60
41 35 37 38 36 33 33 32 32 32 29 29 28 27 28 29 29 29 29 29 29 30 29 28 29 31 33 35 35 36 36 39 53 63 63 63 63 63 64 63 63 62 59 59
35 39 40 38 38 35 35 32 31 30 28 27 27 25 23 24 23 23 23 23 24 25 23 28 29 28 30 31 33 34 36 37 42 58 63 64 63 63 63 63 63 62 61 59
36 41 40 39 37 37 34 37 32 28 27 25 26 21 23 22 18 22 26 27 26 26 26 32 36 36 34 35 34 32 34 36 38 48 60 62 59 59 61 61 62 62 62 59
34 40 38 37 38 38 35 31 28 27 26 25 24 20 16 17 18 23 25 28 30 30 32 34 36 37 38 39 39 38 34 32 36 39 54 61 60 60 61 62 62 62 61 60
31 34 36 37 38 38 30 27 26 25 24 22 21 21 10 16 19 22 25 27 29 32 35 36 37 38 39 38 38 38 38 38 36 36 41 58 61 61 61 61 61 61 60 60
34 33 31 36 33 31 28 28 23 13 20 18 23 21 16 19 21 23 25 27 29 31 35 37 38 39 40 40 38 39 39 38 39 40 39 40 53 61 60 60 60 60 58 57
29 26 30 31 30 29 27 28 23 8 8 12 22 16 15 22 21 23 26 27 28 32 34 38 39 40 40 40 39 40 40 40 40 40 41 42 42 46 56 59 59 59 59 58
25 27 31 31 31 29 26 25 23 20 19 17 15 18 15 21 23 24 27 29 31 33 37 40 41 41 41 41 41 41 40 40 40 40 44 45 45 44 45 50 56 58 58 57
27 26 31 30 30 29 27 27 23 20 8 4 7 9 6 19 20 24 27 29 30 34 41 42 41 41 42 42 42 41 40 40 42 46 46 48 48 48 48 48 50 54 56 55
28 27 30 30 28 27 26 25 24 21 18 7 -0 2 16 17 23 24 26 29 31 40 42 41 41 42 42 42 40 40 40 41 42 43 45 46 47 48 49 50 51 51 51 51
28 29 27 28 28 29 28 26 23 16 17 21 20 7 22 22 24 25 26 29 35 42 40 40 40 40 42 39 37 37 37 38 39 42 44 45 47 47 47 47 47 47 48 47
27 25 24 25 27 28 28 27 24 21 22 19 14 9 23 24 24 25 27 30 41 40 38 35 34 34 39 35 36 37 37 36 38 39 42 43 44 45 45 45 44 44 44 43
27 24 20 15 20 26 26 27 25 23 21 19 19 16 18 21 24 27 29 35 40 37 32 31 30 32 36 33 34 34 35 35 35 35 36 39 39 40 40 38 38 38 37 34
28 24 25 25 26 26 26 27 26 24 24 21 17 21 21 24 26 28 31 40 38 33 30 28 31 34 31 31 31 31 32 33 33 32 33 33 34 35 35 33 33 32 31 30
28 27 27 24 26 27 26 27 27 26 26 25 25 25 27 28 29 33 40 38 34 29 28 28 27 29 29 31 32 31 32 33 33 33 33 33 33 34 34 34 35 34 34 34
27 26 24 20 24 25 23 26 27 27 28 27 24 26 27 27 29 33 39 35 30 27 27 26 25 26 28 31 33 33 34 34 34 34 34 34 33 32 32 33 34 35 35 36
27 26 26 23 22 16 19 28 28 27 27 28 28 27 27 28 32 39 35 31 27 27 27 26 26 27 28 31 33 34 35 35 35 35 35 35 35 34 34 34 34 34 34 35
29 28 26 23 22 20 26 29 27 27 30 28 27 29 31 36 39 38 34 28 27 27 28 29 29 29 30 31 32 33 34 34 34 34 34 35 34 33 32 32 32 33 33 32
33 30 25 24 20 16 24 32 33 33 31 34 33 34 35 36 32 37 34 30 30 29 31 32 32 33 33 33 35 35 34 34 34 35 35 35 35 34 33 32 31 31 32 31
31 32 26 24 22 22 25 28 37 31 31 34 35 35 34 33 36 37 33 32 32 33 33 33 33 33 33 34 34 33 34 33 35 35 35 34 33 32 32 32 31 31 30 29
26 26 26 27 23 18 27 36 34 35 35 35 35 35 34 35 37 35 35 34 33 33 34 34 33 33 34 33 33 32 32 34 34 34 33 32 33 33 32 30 27 20 16 14
28 28 27 25 23 26 31 31 34 34 35 35 35 35 34 35 37 35 36 34 34 34 35 34 33 34 34 34 34 32 33 34 32 32 31 29 26 19 16 13 12 11 11 11
33 33 32 32 32 32 34 35 36 36 36 35 35 34 34 35 37 35 36 35 34 34 34 34 34 34 33 34 33 33 33 27 23 21 16 14 13 12 12 12 12 11 11 11
32 33 33 33 34 34 34 36 37 37 37 36 35 34 35 36 36 34 36 36 35 34 34 34 34 33 33 33 29 28 23 19 17 16 15 14 13 11 11 9 6 7 8 8
34 31 30 29 33 36 36 37 36 34 34 34 33 33 35 38 36 32 36 36 35 33 32 33 33 33 33 32 23 23 20 17 15 13 13 15 16 18 19 20 20 22 21 20
Wind_Speed
17 11 28 24 11 7 16 10 7 4 2 2 8 8 16 16 15 19 20 21 22 19 10 12 16 16 16 16 15 17 18 22 20 19 19 18 20 21 17 20 21 23 22 22
12 20 14 18 13 11 12 11 7 1 3 1 6 16 22 16 12 12 13 15 13 12 13 13 13 14 14 16 16 17 18 19 19 19 20 19 21 17 20 18 19 22 22 23
6 2 21 20 13 13 5 10 6 3 1 3 11 7 6 4 5 11 13 5 4 6 11 15 15 11 10 11 12 14 16 18 18 20 18 13 10 11 14 14 18 22 23 24
4 5 13 19 20 14 9 3 4 5 2 3 6 6 7 4 11 14 17 18 15 14 10 12 15 16 12 11 10 9 11 14 16 15 18 22 22 22 21 20 19 19 21 23
2 14 22 14 3 11 3 6 7 5 5 1 2 2 3 1 9 9 11 13 12 10 11 16 16 15 13 12 12 11 8 9 12 12 17 18 21 20 19 18 19 20 17 22
7 3 4 4 7 7 13 9 7 5 3 1 2 4 1 3 4 3 6 10 11 12 14 14 12 13 17 16 15 14 12 10 7 7 10 16 20 19 15 16 19 19 18 17
6 6 6 14 11 6 1 5 1 1 3 4 2 2 7 3 2 6 9 11 11 10 15 17 18 19 20 20 17 15 15 14 11 9 8 11 17 15 16 19 18 15 14 13
5 6 3 1 4 10 4 2 3 3 4 3 1 6 2 6 5 4 5 7 6 7 10 13 14 15 17 19 17 17 17 17 12 10 10 9 11 12 15 17 18 17 18 18
6 4 2 6 4 3 5 3 3 7 2 2 3 5 7 3 7 2 13 12 17 14 14 14 13 14 17 19 19 16 16 15 12 9 9 10 11 13 15 17 15 17 16 14
3 7 4 5 5 13 3 10 3 1 4 4 4 5 5 9 7 6 17 16 15 13 15 15 15 16 18 18 16 15 11 10 10 8 7 8 9 10 12 14 17 16 13 11
5 4 2 4 1 8 4 3 4 6 2 2 2 3 5 12 6 11 18 15 14 10 12 13 14 13 15 14 14 14 13 11 11 10 10 10 11 11 9 9 10 9 7 9
2 5 5 2 1 2 3 5 5 3 4 1 1 5 2 6 5 10 16 14 10 10 12 14 14 13 14 12 13 14 13 12 11 10 10 9 10 11 10 8 6 5 7 8
7 3 6 2 1 1 3 5 5 7 4 6 5 2 2 2 9 13 12 13 8 10 11 14 14 14 11 9 12 13 12 12 11 11 10 10 11 9 8 6 2 3 5 8
5 4 3 6 2 4 5 8 12 7 7 6 9 6 12 14 15 19 16 8 8 8 10 13 12 10 7 11 10 10 13 13 13 16 18 18 14 12 11 9 7 9 9 11
3 3 2 2 2 4 4 7 17 18 9 8 2 9 17 19 17 16 11 6 9 9 10 12 14 9 9 7 8 12 12 13 13 14 14 14 13 13 12 13 14 16 16 15
2 3 1 1 1 7 9 11 14 17 9 17 16 29 22 21 11 9 5 8 8 9 10 11 10 10 10 10 10 9 11 12 11 13 14 12 12 12 12 12 14 18 18 18
6 7 2 2 1 4 9 16 20 10 10 16 14 18 10 17 15 12 6 4 7 7 7 9 9 8 8 8 7 9 9 9 13 14 12 10 11 11 11 13 15 17 18 18
8 6 2 2 1 3 1 2 12 24 7 19 12 18 19 14 10 1 2 3 5 5 5 5 6 6 5 6 7 6 8 11 14 14 12 11 12 13 13 14 16 15 17 18
5 6 3 1 3 8 1 4 8 9 4 15 18 17 13 7 2 3 2 0 2 2 2 2 3 3 6 7 6 7 10 12 14 12 10 11 12 14 13 15 17 16 19 19
5 5 4 3 3 4 1 1 4 3 5 4 7 7 8 5 3 3 4 3 4 2 2 2 3 5 6 7 7 8 10 12 13 12 11 11 12 13 13 14 16 14 17 17
4 2 7 7 5 7 11 7 0 3 3 2 3 4 3 3 4 3 6 5 4 2 3 4 6 7 6 6 8 10 11 12 11 12 13 13 13 13 14 14 14 14 16 17
9 7 5 5 5 7 4 5 2 3 6 6 3 2 3 4 5 6 5 6 5 4 6 6 6 7 7 8 10 10 11 8 10 12 14 13 12 11 11 14 12 11 12 14
7 8 5 10 7 5 1 4 7 5 5 5 4 3 3 3 7 10 8 8 7 5 7 7 8 8 9 9 9 10 7 9 11 12 13 12 11 10 9 12 11 11 11 10
5 8 4 2 3 7 9 6 2 5 8 11 7 6 3 5 6 11 10 10 9 7 8 9 9 9 9 9 9 10 9 9 10 13 12 11 12 11 10 10 9 9 8 7
6 9 8 6 10 8 1 5 9 17 12 9 7 5 6 5 8 12 12 12 11 10 8 9 11 10 9 8 8 8 8 12 13 12 10 11 11 11 11 10 8 8 5 5
7 8 10 8 5 3 7 6 8 12 10 10 8 8 5 6 9 12 14 13 14 14 11 11 10 12 11 9 9 9 10 12 13 12 10 10 10 9 9 10 10 11 10 9
Wind_Direction
180 172 195 189 168 155 155 166 174 197 147 238 247 261 277 276 273 268 262 261 263 271 287 272 277 272 262 259 246 231 225 221 218 213 212 211 214 223 218 219 216 211 206 203
157 202 190 166 155 150 155 163 184 138 90 242 309 296 277 267 262 273 282 280 286 296 306 318 306 290 269 260 252 246 232 230 220 214 213 214 215 224 225 226 219 215 208 199
161 199 165 169 171 150 155 172 175 147 46 73 341 297 298 36 29 40 23 344 356 350 355 356 352 338 315 291 282 270 257 240 224 220 217 211 218 220 216 219 224 222 210 201
144 162 132 154 184 171 166 124 122 123 98 277 9 301 305 34 92 42 44 47 48 44 27 15 20 25 20 2 333 304 286 270 253 225 218 214 218 225 226 225 225 230 213 205
66 161 157 156 133 122 149 144 133 115 105 13 24 185 269 122 79 60 35 24 25 28 29 26 21 15 12 8 10 11 337 302 275 251 234 227 224 226 223 219 223 226 214 210
76 76 70 102 84 120 149 106 75 67 96 244 210 214 302 132 107 82 16 13 17 23 18 12 6 5 0 355 1 3 1 355 331 264 246 238 233 230 224 220 223 223 217 210
54 33 78 115 85 111 67 160 163 108 137 210 34 190 246 264 194 154 32 11 8 11 11 5 1 357 352 349 346 349 349 337 341 331 300 258 245 241 232 232 230 229 221 212
116 115 13 95 141 166 172 195 185 196 176 199 96 233 203 215 311 187 331 314 314 1 4 358 351 347 344 338 330 331 325 319 328 329 320 308 289 272 256 243 235 231 224 222
132 92 66 59 98 126 170 156 121 105 52 292 214 274 292 107 167 264 354 2 6 357 356 356 350 344 338 328 321 319 319 312 316 316 316 313 302 286 272 264 253 242 234 225
94 106 49 140 78 41 112 137 134 74 189 235 264 266 196 190 198 329 3 1 348 343 352 354 348 351 346 338 327 324 329 315 321 334 333 326 311 287 278 274 263 250 241 213
110 94 53 140 149 162 138 163 79 112 127 195 287 253 214 194 193 348 351 345 339 345 349 345 346 353 353 357 10 15 11 2 357 355 353 355 348 339 325 301 286 263 228 197
86 107 126 144 132 185 155 164 157 166 202 167 123 271 223 205 222 329 325 329 334 343 349 350 352 349 355 353 3 7 5 356 347 341 349 0 355 346 331 313 286 229 199 175
164 99 114 135 235 27 193 175 141 110 95 206 187 221 232 226 297 317 317 333 339 346 351 344 347 345 347 356 9 7 1 355 349 354 356 5 16 4 339 328 282 184 153 146
100 114 153 183 166 143 185 188 175 166 192 189 231 276 276 299 317 325 329 333 341 346 350 338 332 338 354 16 5 360 15 11 7 24 17 15 17 30 32 38 52 78 94 106
98 117 144 220 178 174 200 193 194 208 202 205 257 243 278 293 303 308 311 345 350 345 343 346 346 351 32 6 15 27 20 19 18 33 36 35 30 40 46 53 60 66 69 73
54 140 109 329 230 220 245 230 208 219 231 246 260 281 280 275 294 306 0 354 333 346 354 355 360 16 20 9 6 23 28 23 32 43 39 38 49 55 61 64 70 75 78 83
139 145 118 252 309 300 277 237 207 199 206 219 231 243 281 306 317 329 333 325 342 346 357 6 5 21 11 8 357 21 33 39 50 51 44 48 50 53 59 71 76 83 88 90
139 124 96 245 8 238 225 182 200 205 212 217 251 270 283 292 296 177 196 323 344 4 6 18 2 20 18 25 30 35 45 53 58 55 47 51 61 62 61 67 72 74 80 81
146 131 120 204 246 298 17 165 144 170 178 218 232 266 287 304 279 243 202 127 31 34 27 40 35 47 46 43 39 53 57 64 69 64 60 60 69 74 76 77 81 79 79 78
96 118 149 173 268 213 235 80 163 179 180 186 206 278 304 335 283 214 170 108 75 79 85 62 70 63 56 43 53 65 64 67 68 71 71 72 76 81 81 83 80 78 84 84
153 164 197 215 242 272 256 247 192 191 163 332 226 284 305 274 238 152 145 115 110 110 107 98 80 73 63 72 79 73 67 66 72 75 72 73 76 79 82 83 86 89 89 87
188 191 195 184 215 258 210 115 187 289 294 271 253 228 263 253 206 173 162 139 130 141 115 106 94 81 75 86 95 85 74 70 82 88 88 86 85 82 85 92 87 87 97 99
208 192 191 197 218 238 254 304 311 299 267 300 300 242 263 244 213 187 181 158 150 162 126 115 108 92 79 91 102 99 95 99 95 93 92 91 87 83 85 94 95 92 93 102
235 202 232 234 241 245 267 275 16 27 328 297 292 305 288 264 209 187 172 162 160 163 144 136 123 108 99 97 103 107 111 103 103 104 102 101 99 95 87 86 91 102 107 111
212 165 215 246 283 304 35 81 15 323 316 297 300 292 286 260 220 191 179 175 166 162 161 151 141 135 130 129 121 124 122 126 119 116 115 108 102 101 95 85 93 95 88 112
197 200 208 240 202 231 272 305 357 352 336 330 320 318 301 252 219 192 186 179 168 167 165 161 153 149 149 150 143 138 141 140 135 127 124 121 117 111 108 108 97 91 96 97